Regional Weather Roundup
Issued by NWS

Home | Current Version | Previous Version | Text Only | Print | Product List | Glossary On
Versions: 1 2 3 4 5 6 7 8 9 10 11 12 13 14 15 16 17 18 19 20 21 22 23 24 25 26 27 28 29 30 31 32 33 34 35 36 37 38 39 40 41 42 43 44 45 46 47 48 49 50
000
ASUS43 KDTX 291301
RWRMI
MICHIGAN HOURLY REGIONAL WEATHER ROUNDUP
NATIONAL WEATHER SERVICE DETROIT/PONTIAC MI
900 AM EDT SUN MAY 29 2016

NOTE: "FAIR" INDICATES FEW OR NO CLOUDS BELOW 12,000 FEET WITH NO
SIGNIFICANT WEATHER AND/OR OBSTRUCTION TO VISIBILITY.

MIZ047>049-052>055-059>063-066>070-074>076-081>083-291400-
SOUTHEAST LOWER MICHIGAN

CITY           SKY/WX    TMP DP  RH WIND       PRES   REMARKS
ADRIAN         CLOUDY    70  65  84 SW9       30.07R
ALMA           SUNNY     72  65  77 SW13G20   30.01R
ANN ARBOR      CLOUDY    70  65  84 SW8       30.05R
BAD AXE        CLOUDY    71  65  83 SW8       30.01R
CARO           CLOUDY    72  65  80 S8        30.00S
DETROIT CITY   CLOUDY    73  64  73 SW9       30.04S
DETROIT        PTSUNNY   74  66  76 S10       30.05R
FLINT          PTSUNNY   75  65  70 S8        30.03R
GROSSE ILE     CLOUDY    70  66  88 S6        30.04R
HILLSDALE      SUNNY     69  65  85 SW6       30.07R
HOWELL         CLOUDY    70  66  86 S9        30.04R

CITY           SKY/WX    TMP DP  RH WIND       PRES   REMARKS
JACKSON        SUNNY     72  66  81 S8        30.05R
LAMBERTVILLE   CLOUDY    73  66  77 SW6       30.07R
LANSING        SUNNY     72  65  78 SW9       30.03R
LAPEER         FAIR      71  64  77 SW8       30.03R
MASON          SUNNY     71  65  81 SW7       30.03S
MONROE         CLOUDY    74  67  79 SW8       30.04S
PONTIAC        CLOUDY    71  64  78 VRB7      30.04R
PORT HOPE        N/A     73  65  75 VRB5      29.98R
PORT HURON     CLOUDY    70  64  83 S7        30.03F
TRI CITIES     SUNNY     74  66  76 S10       30.00R
MIDLAND        FAIR      73  66  77 SW9       29.98S
TROY           MOSUNNY   74  66  77 S12       30.06R
SAGINAW HB     MOSUNNY   72  64  78 S14       29.99S
$$
MIZ043>046-050>051-056>058-064>065-071>073-077>080-291400-
SOUTHWEST LOWER MICHIGAN

CITY           SKY/WX    TMP DP  RH WIND       PRES   REMARKS
BATTLE CREEK   SUNNY     72  64  76 S13       30.04R
BENTON HARBOR  SUNNY     72  61  68 SW10      30.01S
BIG RAPIDS     MOSUNNY   69  62  81 S6        29.98S
COLDWATER      MOSUNNY   74  61  64 SW10      30.05R
FREMONT        PTSUNNY   67  62  83 SW10      29.98S
HOLLAND        SUNNY     71  59  65 SW14      30.01R
GRAND RAPIDS   MOSUNNY   74  61  63 SW13      30.01R
IONIA          FAIR      73  61  66 SW13      30.01R
KALAMAZOO      SUNNY     73  62  68 SW9       30.03R
LUDINGTON      SUNNY     69  62  78 S8        29.95S
MARSHALL       MOSUNNY   73  64  71 SW8       30.03S
MOUNT PLEASANT SUNNY     73  66  78 SW8G16    29.98S
MUSKEGON       MOSUNNY   68  56  65 S13       29.99R
SOUTH HAVEN    SUNNY     71  61  70 SW9       30.01R
$$
MIZ016>042-291400-
NORTHERN LOWER MICHIGAN

CITY           SKY/WX    TMP DP  RH WIND       PRES   REMARKS
ALPENA         SUNNY     75  65  70 SW9       29.95S
BEAVER ISLAND  SUNNY     68  61  78 S14G23    29.90S
BELLAIRE       MOSUNNY   72  60  67 S7G16     29.93S
CADILLAC       PTSUNNY   68  61  78 SW10      29.97S
CHARLEVOIX     SUNNY     71  61  71 SW8G17    29.94S
FRANKFORT      SUNNY     69  63  81 S7        29.93R
GAYLORD        MOSUNNY   71  60  68 S12       29.96S
GRAYLING       MOSUNNY   71  63  76 S10       29.97F
HARBOR SPRINGS SUNNY     70  61  74 SW3       29.92S
HOUGHTON LAKE  SUNNY     71  62  73 SW10      29.98S
MANISTEE       SUNNY     66  59  77 S9        29.95S
OSCODA         CLOUDY    73  66  77 SW9G17    29.97S
PELLSTON       SUNNY     72  60  66 SW13      29.91F
ROGERS CITY    MOSUNNY   73  63  69 SW14G20   29.94S
TRAVERSE CITY  MOSUNNY   71  61  70 SW7       29.91S
$$
MIZ007>008-015-291400-
EASTERN UPPER MICHIGAN

CITY           SKY/WX    TMP DP  RH WIND       PRES   REMARKS
KINROSS          N/A     70  63  78 S8        29.90F
MACKINAC ISLAN SUNNY     69  64  83 S8        29.91S
NEWBERRY       SUNNY     64  60  87 S14G23    29.88S
S. S. MARIE    SUNNY     68  62  81 SE5       29.90S
MUNISING         N/A     66  60  81 S9        29.82F
$$
MIZ004>006-011>014-085-291400-
CENTRAL UPPER MICHIGAN

CITY           SKY/WX    TMP DP  RH WIND       PRES   REMARKS
MANISTIQUE     FOG       53  53  97 S9        29.88S VSB 1/4
ESCANABA       PTSUNNY   61  57  88 S8        29.85F
MENOMINEE      SUNNY     70  63  78 SW9       29.86F
SAWYER-GWINN   CLOUDY    63  59  88 SW13      29.84R
$$
MIZ001>003-009>011-084-291400-
WESTERN UPPER MICHIGAN

CITY           SKY/WX    TMP DP  RH WIND       PRES   REMARKS
IRON MOUNTAIN  CLOUDY    65  61  87 S7        29.83R
HOUGHTON       FOG       60  58  92 S3        29.78R VSB 1/2
COPPER HARBOR    N/A     57  57 100 VRB5      29.76S
IRONWOOD       CLOUDY    61  61 100 W13       29.78S
$$

ABBREVIATIONS USED IN REMARKS
   TC - TEMPERATURE IN CELSIUS
  WCI - WIND CHILL INDEX
   HX - HEAT INDEX
  VSB - VISIBILITY





USA.gov is the U.S. government's official web portal to all federal, state and local government web resources and services.